Vertical_Velocity
-5 -5 -4 -2 -2 -2 -1 1 -0 -2 -3 -1 -1 -1 -1 -2 -2 -2 -2 -2 -2 -1 -0 1 1 1 1 -0 -1 -2 -3 -3 -4 -4 -4 -3 -4 -4 -4 -4 -4 -4 -4 -4 -5 -6 -8 -8 -8 -8 -7 -6 -3 -1 1 1 2 2 2 2 1 0 3 10 7 -0 -3 -1 1 4 8 9 10 9 6 1 -0 -1 -1 -0 -0 -0 -1 -1 -1 0
-4 -4 -3 -1 -1 -2 -3 1 1 -1 -4 -3 -2 -1 -2 -1 -1 -1 -2 -2 -2 -2 -1 0 1 1 0 -0 -1 -2 -3 -3 -3 -3 -3 -2 -3 -3 -4 -4 -3 -2 -1 -1 -1 -1 -1 -2 -2 -3 -4 -4 -4 -2 1 0 -0 0 3 3 1 -0 3 10 8 3 0 -1 -1 3 10 8 9 10 11 9 6 2 -0 -0 -0 -0 -1 -1 0 2
-4 -5 -4 -1 -0 -1 -3 -0 1 0 -2 -3 -3 -2 -2 -2 -2 -1 -1 -2 -2 -1 -1 -1 -0 0 0 -0 -1 -2 -3 -3 -3 -3 -3 -3 -3 -4 -4 -5 -5 -4 -2 -1 1 2 2 3 2 1 -0 -0 -1 -1 -0 -0 -1 -1 2 3 0 -1 2 10 8 4 3 2 0 2 8 7 5 5 8 10 8 4 0 0 0 -0 -0 -0 1 2
-3 -6 -7 -3 -1 -0 -1 -1 -1 -1 -1 -2 -3 -3 -3 -2 -2 -2 -1 -1 -1 -1 -1 -1 -1 -0 -0 -1 -1 -2 -3 -3 -3 -4 -4 -4 -4 -4 -4 -5 -5 -5 -4 -2 -1 1 2 2 3 2 0 2 2 1 -0 1 1 2 2 3 -1 -3 4 10 8 4 3 3 2 2 4 5 4 3 4 8 8 4 0 1 1 0 0 0 1 2
-2 -4 -7 -4 -3 -2 -0 0 -0 -1 -2 -2 -2 -2 -2 -3 -3 -3 -2 -2 -1 -1 -1 -1 -1 -1 -0 -1 -1 -2 -2 -3 -4 -4 -4 -3 -3 -2 -2 -3 -4 -4 -3 -3 -3 -2 -1 -1 -0 -0 -1 -0 0 0 -0 -1 1 3 4 4 -1 -3 5 9 8 4 3 4 3 3 4 4 4 5 6 9 6 2 0 1 1 1 1 1 1 1
-3 -2 -4 -4 -4 -4 -2 -1 -1 -1 -3 -3 -2 -2 -2 -3 -4 -3 -2 -1 -1 -1 -1 -1 -1 -1 -1 -1 -1 -2 -3 -4 -4 -4 -3 -3 -2 -1 -1 -2 -2 -2 -1 -3 -4 -4 -3 -2 -2 -2 -2 -2 -2 -2 -3 -3 -1 1 3 3 -0 -2 4 7 6 5 3 4 4 4 4 3 3 5 10 9 4 -0 -0 1 2 2 2 1 1 1
-4 -3 -2 -3 -4 -4 -3 -2 -1 -2 -4 -4 -3 -2 -1 -3 -3 -3 -2 -1 -1 -1 -1 -1 -1 -1 -1 -1 -1 -2 -3 -4 -4 -4 -3 -2 -2 -2 -2 -2 -4 -4 -2 -4 -5 -6 -4 -3 -2 -2 -2 -4 -4 -6 -8 -6 -3 0 2 2 0 -1 1 3 5 6 4 4 4 4 4 3 2 4 10 6 1 -1 -1 1 2 2 2 1 1 1
-7 -5 -1 -2 -3 -3 -2 -0 -0 -1 -4 -5 -5 -3 -2 -2 -2 -2 -2 -2 -2 -2 -2 -1 -1 -1 -1 -1 -2 -2 -3 -4 -4 -3 -3 -2 -2 -3 -4 -5 -7 -7 -5 -4 -5 -5 -5 -4 -3 -2 -3 -6 -8 -10 -13 -9 -3 1 2 1 0 -1 -2 1 4 7 5 4 4 4 3 3 2 2 4 1 -0 -1 -2 0 2 3 2 1 1 1
-7 -6 -3 -1 -1 -3 -4 -1 1 1 -2 -4 -5 -5 -4 -3 -2 -2 -2 -2 -2 -2 -2 -1 -0 0 0 -1 -2 -3 -3 -4 -3 -3 -2 -2 -3 -4 -6 -8 -10 -9 -5 -3 -3 -4 -5 -6 -5 -4 -4 -7 -10 -12 -12 -10 -4 2 3 1 -1 -2 -5 -1 4 7 5 4 4 3 2 2 1 1 -0 -1 -1 -1 -2 -0 2 3 2 1 1 1
-6 -4 -4 -2 -0 -1 -4 -4 -1 1 0 -3 -4 -5 -5 -5 -4 -3 -1 0 -1 -2 -3 -2 -1 0 0 -1 -3 -4 -4 -4 -3 -3 -3 -3 -4 -6 -7 -9 -9 -7 -1 0 -1 -3 -5 -6 -6 -5 -6 -7 -8 -7 -4 -5 -2 1 3 1 -1 -4 -6 -3 2 5 3 2 3 3 2 1 0 0 -0 -0 -1 -1 -2 -1 1 2 2 2 2 2
-5 -3 -2 -2 -1 -0 -0 -3 -2 -1 -1 -2 -4 -4 -4 -5 -5 -4 -3 -0 -0 -1 -3 -2 -1 -0 -0 -2 -3 -4 -4 -4 -3 -3 -3 -4 -5 -6 -5 -5 -5 -4 1 2 0 -2 -4 -6 -6 -6 -6 -7 -6 -3 0 -1 -1 -0 2 1 -1 -4 -5 -3 0 2 1 -0 1 4 3 1 -0 -0 -0 -0 -1 -1 -2 -2 -0 1 2 2 3 2
-4 -3 -3 -3 -2 -1 -0 -1 -1 -1 -2 -3 -4 -3 -2 -3 -4 -5 -5 -3 -1 -1 -2 -1 -1 -1 -1 -2 -3 -4 -5 -4 -4 -3 -3 -3 -4 -4 -4 -3 -4 -3 0 1 -0 -2 -3 -4 -5 -5 -4 -5 -5 -4 -3 -3 -2 -0 2 1 -1 -4 -3 -3 -2 -1 -1 -2 1 4 4 1 0 -1 -1 -1 -1 -1 -2 -2 -1 0 1 3 3 2
-3 -2 -3 -4 -3 -2 -1 -2 -2 -1 -1 -3 -4 -4 -3 -3 -4 -5 -6 -4 -2 -1 -1 -1 -1 -1 -1 -2 -4 -5 -6 -5 -4 -3 -2 -2 -2 -3 -4 -3 -3 -3 -2 -1 -2 -3 -3 -4 -4 -4 -4 -3 -4 -4 -5 -5 -3 -0 2 2 0 -2 -3 -4 -4 -4 -4 -2 0 3 4 2 0 -1 -1 -0 -0 -1 -2 -3 -2 -1 1 2 3 2
-3 -2 -3 -3 -2 -1 -1 -1 -2 -2 -2 -3 -4 -4 -4 -4 -4 -5 -5 -4 -3 -2 -2 -2 -1 -0 -1 -3 -4 -6 -6 -5 -4 -4 -3 -2 -3 -3 -4 -4 -3 -2 -1 -1 -2 -3 -3 -3 -4 -4 -3 -3 -3 -3 -3 -3 -1 0 1 2 1 -0 -4 -7 -7 -6 -5 -2 1 3 5 2 1 -0 -0 -0 -0 -1 -2 -3 -3 -2 0 1 2 1
-3 -2 -4 -4 -2 -1 -0 -1 -1 -2 -2 -3 -4 -4 -4 -4 -4 -4 -5 -4 -3 -2 -2 -1 -0 0 -0 -2 -4 -5 -5 -5 -4 -4 -3 -2 -2 -4 -6 -6 -4 -2 0 -1 -1 -0 1 -1 -3 -4 -3 -3 -3 -3 -1 -0 0 0 -0 -0 0 0 -2 -6 -7 -6 -5 -2 0 2 3 2 1 0 0 -0 0 -0 -1 -3 -3 -3 -0 1 1 1
-2 -1 -3 -4 -3 -1 -0 -0 -1 -2 -3 -3 -3 -4 -4 -3 -4 -4 -5 -5 -4 -3 -2 -2 -1 0 1 -1 -4 -5 -4 -4 -4 -4 -3 -1 -1 -3 -7 -8 -7 -5 -3 -3 -1 1 2 -0 -1 -2 -3 -4 -3 -2 -0 0 1 0 -2 -3 -1 0 -0 -3 -5 -6 -5 -3 -1 1 2 2 1 0 0 0 0 -0 -1 -2 -3 -3 -1 0 1 1
-1 -1 -2 -3 -3 -2 0 -0 -1 -2 -3 -3 -3 -3 -3 -4 -4 -5 -5 -5 -4 -3 -2 -2 -1 -1 1 -0 -3 -4 -4 -4 -4 -4 -4 -2 -1 -3 -7 -8 -7 -6 -5 -2 -0 1 -0 -1 -1 -1 -3 -3 -1 0 0 1 1 0 -2 -3 -3 -1 -0 -1 -1 -2 -3 -3 -1 0 1 2 1 0 0 -0 0 0 -1 -3 -4 -3 -1 0 1 1
-0 -0 -2 -2 -2 -2 -1 -1 -2 -3 -3 -3 -3 -3 -3 -4 -4 -4 -5 -4 -4 -3 -2 -2 -2 -1 1 1 -1 -3 -4 -5 -6 -6 -5 -3 -2 -2 -6 -7 -7 -5 -2 1 2 2 0 0 0 -1 -3 -2 -1 -1 -1 -1 -1 -1 -2 -2 -2 -2 -2 -0 0 -0 -2 -2 -2 -1 -0 1 1 0 0 0 0 0 -0 -3 -3 -3 -1 -0 0 0
-1 -0 -1 -2 -2 -2 -1 -1 -2 -3 -3 -4 -4 -3 -3 -3 -3 -4 -5 -4 -4 -4 -4 -3 -2 -1 0 2 0 -3 -6 -6 -7 -6 -5 -2 1 0 -5 -8 -7 -5 -2 0 2 2 2 3 3 1 -1 -1 -2 -2 -1 -1 -2 -2 -2 -1 -0 -1 -4 -4 -6 -6 -5 -4 -4 -3 -3 -1 -0 0 0 0 0 0 -0 -3 -4 -2 -1 -1 -1 -1
-2 -0 0 -1 -2 -2 -1 -1 -1 -2 -3 -4 -4 -3 -3 -3 -3 -4 -5 -4 -4 -4 -4 -3 -2 -1 0 1 0 -2 -6 -6 -7 -6 -5 -0 2 1 -5 -8 -9 -8 -5 -2 1 2 2 2 1 -2 -4 -3 -2 -2 -1 -1 -2 -2 -1 -0 0 -0 -3 -6 -7 -8 -6 -5 -5 -5 -6 -3 -1 0 1 1 1 0 -0 -4 -4 -2 -1 -2 -2 -2
-2 -1 1 -0 -2 -3 -3 -1 -1 -2 -3 -3 -4 -4 -4 -4 -4 -4 -4 -4 -4 -4 -4 -3 -2 -1 -0 0 1 -0 -4 -5 -6 -6 -5 -1 2 1 -4 -8 -9 -7 -5 0 3 3 1 0 -3 -6 -7 -5 -3 -2 -1 -2 -2 -2 -1 0 2 2 0 -4 -6 -7 -5 -5 -5 -6 -8 -5 -2 -0 1 1 1 0 -1 -5 -5 -3 -1 -1 -2 -2
-3 -2 0 0 -1 -3 -3 -2 -1 -1 -2 -3 -4 -4 -4 -4 -4 -4 -4 -4 -4 -4 -3 -3 -2 -2 -2 -0 1 1 -4 -5 -6 -7 -6 -2 1 1 -4 -8 -9 -7 -5 1 3 3 1 -1 -4 -4 -4 -2 -2 -1 -1 -2 -3 -3 -1 1 3 3 2 -2 -5 -7 -7 -6 -6 -8 -10 -7 -4 -0 1 1 1 -0 -2 -7 -6 -3 -0 -0 0 0
-3 -3 -1 -0 -1 -2 -2 -2 -1 -0 -1 -2 -4 -5 -5 -4 -4 -4 -3 -3 -3 -3 -3 -3 -3 -2 -2 -0 0 -0 -3 -4 -6 -7 -7 -3 1 2 -4 -7 -8 -8 -7 -1 1 1 -1 -3 -3 -3 -1 -0 0 -0 -1 -1 -2 -2 -0 2 2 2 3 -0 -4 -8 -8 -8 -8 -9 -11 -9 -5 -1 2 1 1 -0 -3 -7 -6 -3 -0 0 2 3
-3 -3 -2 -1 -0 -1 -1 -1 -1 -0 -1 -3 -4 -5 -5 -4 -4 -4 -2 -2 -2 -2 -3 -4 -3 -2 0 0 1 0 -1 -3 -5 -6 -5 -3 1 2 -1 -5 -8 -9 -8 -2 -1 -1 -2 -3 -2 -1 -1 -1 -1 -0 0 1 0 0 1 3 3 2 2 -0 -4 -7 -7 -8 -9 -10 -12 -10 -5 -1 2 2 2 0 -3 -7 -6 -3 0 0 2 4
-3 -2 -1 -0 -0 -0 -1 -1 -1 -1 -2 -4 -5 -6 -5 -4 -4 -4 -2 -2 -2 -2 -3 -3 -2 -1 0 -0 0 1 -0 -3 -4 -4 -4 -2 0 1 -1 -5 -9 -10 -8 -3 -1 -2 -3 -2 -1 0 -0 -1 -0 0 1 2 3 3 4 3 4 4 3 -1 -4 -6 -5 -6 -6 -8 -11 -10 -5 -1 3 3 2 0 -4 -7 -5 -3 -1 -1 1 4
-3 -2 -1 -1 -0 -0 -1 -1 -1 -2 -3 -4 -4 -4 -4 -4 -4 -3 -2 -1 -1 -2 -3 -3 -2 -2 -2 -2 -2 -1 -1 -2 -3 -3 -3 -2 -0 1 2 -4 -8 -11 -9 -4 -2 -3 -4 -3 -1 0 -1 -0 1 1 2 4 5 5 6 4 3 2 2 -1 -3 -4 -3 -2 -3 -6 -9 -8 -5 -1 2 3 2 -0 -4 -6 -5 -2 -2 -2 1 4
-3 -3 -2 -2 -1 -1 -1 -1 -1 -1 -2 -2 -2 -3 -4 -4 -3 -2 -1 -0 -1 -2 -4 -4 -3 -3 -2 -2 -1 -1 -1 -1 -1 -2 -3 -1 1 4 5 -2 -7 -10 -8 -5 -3 -3 -4 -2 -0 1 -0 1 2 3 3 5 6 7 7 4 2 0 1 -1 -2 -2 -2 -1 -2 -5 -9 -8 -5 -2 2 3 2 -1 -4 -4 -3 -2 -2 -2 0 3
-3 -3 -3 -3 -3 -2 -1 -1 -0 -0 -0 -1 -2 -3 -4 -4 -3 -2 -1 0 -1 -2 -4 -4 -3 -2 -1 -2 -2 -1 -0 0 -1 -3 -2 0 3 5 6 -1 -5 -7 -6 -4 -3 -2 -1 1 3 4 4 4 4 3 3 6 8 8 6 5 3 2 2 1 -1 -1 -1 -2 -4 -5 -8 -8 -6 -2 1 2 2 -1 -4 -3 -2 -2 -4 -2 -0 1
-4 -4 -4 -4 -3 -3 -2 -1 -1 -1 -1 -1 -2 -3 -4 -3 -2 -1 0 0 -1 -2 -3 -3 -3 -2 -2 -3 -3 -1 1 0 -2 -4 -1 1 4 4 4 0 -2 -4 -4 -4 -3 -2 -1 1 3 5 5 5 4 3 4 8 9 8 5 5 5 4 3 1 -1 -0 1 -0 -1 -3 -8 -8 -5 -1 1 2 1 -0 -3 -2 -2 -4 -5 -4 -2 0
-4 -4 -4 -3 -3 -3 -3 -3 -2 -2 -2 -2 -2 -2 -2 -2 -1 -0 1 0 -1 -2 -3 -3 -2 -2 -2 -2 -0 1 4 0 -3 -4 1 1 3 4 4 2 1 -1 -4 -5 -6 -6 -4 -0 3 5 6 6 4 4 6 10 9 6 5 6 5 3 1 -1 -0 2 4 3 2 -1 -8 -8 -5 -1 0 2 2 0 -2 -2 -4 -6 -8 -6 -3 -1
-3 -2 -2 -1 -2 -2 -3 -3 -3 -3 -2 -2 -2 -2 -1 -1 -0 -0 0 -0 -1 -2 -2 -2 -2 -2 -1 0 1 3 6 1 -3 -4 2 1 2 5 6 4 3 1 -3 -7 -8 -6 -3 -0 2 3 6 6 5 5 8 9 8 6 7 8 8 6 3 3 5 6 5 5 4 1 -4 -5 -3 -1 1 3 2 0 -3 -3 -6 -9 -10 -8 -4 -2
-1 -1 -1 -1 -1 -2 -2 -2 -2 -2 -1 -1 -1 -1 -1 -1 -0 -0 -0 -0 -1 -1 -2 -2 -2 -2 -1 -0 1 3 6 1 -2 -3 2 0 2 5 6 3 2 0 -3 -6 -6 -4 -1 -1 -2 0 6 5 4 4 8 9 8 7 10 10 10 9 6 9 12 11 6 5 4 3 0 -1 -1 0 2 4 3 0 -3 -3 -7 -11 -13 -9 -5 -1
-1 -1 -1 -1 -1 -1 -2 -2 -1 -1 -1 -1 -1 -1 -1 -1 -1 -0 0 0 -0 -1 -1 -2 -2 -2 -1 -0 1 3 6 2 -2 -2 1 1 3 4 4 2 -0 -2 -4 -4 -4 -4 -4 -5 -3 1 8 6 4 5 9 9 8 8 10 7 7 8 8 11 12 12 9 6 4 3 2 1 1 2 4 6 4 1 -2 -3 -7 -12 -14 -8 -4 0
-1 -0 0 0 0 -0 -1 -1 -0 -0 -0 -1 -1 -1 -1 -1 -0 0 1 1 -0 -2 -2 -2 -2 -2 -1 0 2 5 6 1 -1 -1 1 0 1 3 3 3 1 -2 -3 1 1 -1 -5 -5 -2 3 9 6 3 4 9 7 8 9 10 4 2 4 8 10 11 11 10 7 4 2 1 0 1 3 6 6 5 2 -1 -2 -6 -11 -11 -6 -2 -0
-0 0 1 1 1 0 0 -0 -0 -0 -0 -1 -1 -1 -1 -1 -0 1 1 1 -0 -2 -2 -2 -2 -2 -0 1 3 4 5 0 -1 -1 -0 -1 0 1 2 4 2 1 3 9 10 7 2 -1 0 5 10 3 -3 -4 2 3 7 11 12 3 -0 0 4 9 12 12 9 6 3 0 -2 -3 -2 1 5 6 5 3 0 -1 -5 -8 -7 -2 -0 0
-0 0 1 1 1 0 0 -0 -0 -0 -1 -1 -1 -1 -1 -0 1 1 1 0 -0 -1 -2 -2 -2 -1 1 1 2 2 3 -0 -1 -1 -1 -1 -0 1 2 3 2 2 6 12 14 13 10 6 7 11 13 3 -5 -9 -5 -1 5 9 9 3 -1 -1 2 9 13 14 9 5 2 0 -2 -4 -3 -1 4 6 6 5 3 2 -2 -6 -6 -1 1 3
0 0 1 0 -0 -0 -0 -0 -0 -1 -1 -1 -1 -0 0 1 2 2 1 0 0 -1 -2 -2 -1 -0 1 1 1 2 1 -0 -1 -2 -2 -2 -2 -1 -0 -0 -1 0 5 10 13 14 12 11 12 13 12 6 -2 -7 -7 -3 1 4 3 0 -2 -3 0 4 9 11 6 2 1 0 -0 -3 -1 3 6 8 9 9 8 6 2 -3 -5 -2 1 4
0 1 1 0 -0 -0 -0 -0 -0 -1 -1 -0 0 1 1 2 2 2 1 1 0 -0 -1 -1 -1 1 2 2 1 0 -0 -1 -2 -3 -3 -4 -4 -4 -3 -4 -3 -1 5 8 11 14 15 17 17 14 8 5 1 -2 -6 -2 1 2 3 4 4 3 1 1 3 5 4 3 2 2 2 1 3 8 13 13 11 9 9 6 3 -1 -5 -2 1 4
1 1 2 1 0 -0 -0 -0 -0 -0 0 0 1 1 1 1 2 2 2 2 1 0 -1 -1 -0 1 2 1 -0 -2 -2 -2 -2 -2 -4 -5 -5 -5 -5 -5 -3 -0 4 4 6 11 18 23 22 17 7 -1 -2 -0 4 6 6 7 9 12 13 11 7 4 4 4 3 3 3 4 6 5 7 10 15 15 12 8 4 -0 -4 -8 -10 -5 -1 1
1 2 3 2 1 1 0 0 1 1 1 1 1 1 1 1 2 2 3 3 2 1 0 -1 -1 -1 -1 -2 -2 -1 0 1 0 -2 -5 -6 -6 -7 -7 -4 -1 3 4 2 2 7 18 25 24 18 7 -3 -12 -13 1 8 9 9 11 9 8 7 5 4 4 3 2 -0 -1 -0 4 7 8 9 8 7 5 2 -2 -5 -9 -13 -14 -10 -8 -7
2 3 3 3 2 1 1 1 2 2 2 2 2 2 2 2 2 3 3 3 2 1 -0 -2 -3 -4 -4 -4 -2 1 5 4 1 -3 -6 -8 -8 -8 -5 -1 3 4 3 1 3 9 18 24 20 12 4 -3 -10 -12 -3 4 8 10 10 6 2 -0 -0 2 4 4 4 0 -2 -1 4 7 7 5 2 -2 -6 -7 -6 -7 -11 -14 -12 -8 -9 -12
2 3 4 3 3 3 3 3 3 3 3 2 2 3 3 3 3 3 3 3 2 0 -1 -2 -3 -4 -3 -3 -1 2 5 3 -1 -4 -8 -10 -8 -4 1 4 5 4 1 1 6 13 20 20 13 4 -6 -8 -10 -10 -6 -0 7 12 13 9 7 8 10 9 7 5 3 0 -0 1 3 3 1 -1 -4 -4 -4 -4 -3 -4 -8 -11 -9 -6 -6 -8
2 3 4 4 4 4 3 3 3 3 3 2 3 3 3 3 2 2 2 2 1 -0 -2 -3 -3 -3 -3 -2 -0 2 3 1 -2 -5 -6 -2 2 6 6 5 3 2 1 4 9 14 16 14 12 6 -4 -5 -10 -15 -18 -10 1 10 12 8 4 2 4 5 6 5 2 -1 -1 0 1 0 -2 -4 -5 -3 -3 -3 -3 -4 -6 -7 -4 -4 -5 -7
2 3 4 4 5 4 4 3 3 3 3 2 3 3 3 3 2 1 1 2 1 0 -2 -4 -4 -4 -4 -3 -1 -0 0 -1 -2 -1 2 7 9 9 5 4 3 2 2 8 16 20 15 15 13 8 -1 -2 -3 -5 -5 -3 2 8 10 5 -2 -8 -10 -6 -1 3 4 3 2 2 2 3 3 1 -1 -1 -2 -4 -4 -7 -7 -5 1 1 -2 -8
2 3 3 4 4 4 3 4 3 3 3 3 3 3 3 3 2 1 1 2 2 1 -2 -3 -4 -4 -5 -5 -4 -3 -2 -1 1 4 8 8 7 6 5 5 4 3 5 12 18 23 23 23 16 6 -3 -4 -4 -2 3 4 7 9 10 6 4 4 7 7 5 2 -0 1 1 1 2 4 3 2 -2 -4 -6 -6 -6 -9 -9 -7 -1 -0 -4 -8
2 2 3 3 4 4 4 4 3 3 3 4 4 4 3 2 1 1 1 3 3 2 -0 -1 -2 -3 -5 -5 -4 -1 1 4 7 9 11 9 8 7 7 9 9 10 12 19 23 25 28 27 16 4 -0 -0 -0 1 3 4 6 9 10 11 11 12 15 9 2 -3 -5 -4 -3 -2 -1 1 1 -1 -6 -7 -6 -4 -1 -5 -7 -6 -5 -5 -8 -10
2 3 3 3 3 4 4 3 3 3 4 4 4 3 2 0 -0 -0 1 3 4 3 1 1 -0 -0 1 3 4 6 8 8 9 11 15 17 17 15 12 11 12 16 22 28 29 28 29 20 8 -0 -1 -1 1 5 10 10 9 10 12 12 9 4 -1 -5 -5 -3 -1 -2 -3 -3 -1 1 1 -1 -5 -6 -4 -1 5 3 1 -1 -3 -5 -7 -8
3 3 3 3 3 3 3 3 3 4 4 5 4 3 1 -0 -1 -1 1 2 2 1 1 1 1 1 4 6 9 11 12 8 7 9 14 19 21 21 20 16 16 19 26 31 31 27 22 12 4 -0 -1 -0 5 12 17 14 11 9 10 8 1 -5 -8 -5 -1 3 5 2 -1 -3 -4 -4 -5 -6 -6 -5 -3 -1 3 4 4 2 1 -1 -2 -3
3 3 3 2 2 2 2 3 3 3 5 5 5 4 3 1 0 0 1 -0 -1 -1 -0 0 0 0 1 3 5 7 7 4 2 3 6 10 14 16 18 17 18 20 26 32 31 26 16 11 7 3 -0 3 8 12 15 13 11 10 9 4 -3 -8 -10 -6 -3 -1 -0 1 2 2 1 -2 -6 -10 -10 -7 -4 -1 2 2 1 -1 -1 1 2 2
3 3 3 3 2 2 2 2 3 3 4 4 5 5 4 4 3 2 -1 -3 -4 -3 -2 -2 -1 -2 -1 -1 -0 1 1 -0 -1 -2 -1 1 3 5 7 9 11 15 22 33 32 24 14 13 10 6 1 3 4 5 6 8 9 8 8 3 -2 -5 -6 -7 -7 -7 -6 -3 0 3 6 6 3 -1 -4 -4 -3 -1 1 0 -2 -4 -4 -1 2 4
3 3 3 3 2 2 2 3 3 3 3 3 3 3 3 2 1 -1 -3 -4 -5 -4 -4 -3 -3 -4 -4 -3 -2 -1 -1 -1 -2 -2 -3 -2 -2 -1 1 4 6 12 22 34 33 24 14 13 9 4 0 0 0 1 3 4 4 4 6 5 2 -1 -4 -5 -6 -5 -3 -2 -0 1 4 6 6 4 0 -0 -0 1 1 0 -3 -6 -6 -2 1 4
Height
2858 2858 2857 2857 2856 2856 2855 2855 2854 2854 2853 2853 2853 2852 2852 2852 2852 2852 2853 2853 2854 2854 2856 2857 2858 2860 2861 2863 2864 2865 2867 2868 2869 2871 2873 2874 2876 2878 2879 2882 2884 2886 2889 2891 2894 2897 2899 2903 2906 2910 2914 2918 2922 2927 2932 2937 2941 2947 2952 2956 2960 2963 2964 2965 2967 2971 2976 2981 2986 2991 2995 2999 3003 3007 3010 3014 3017 3020 3024 3026 3029 3032 3035 3038 3041 3044
2857 2856 2855 2855 2854 2854 2854 2854 2853 2852 2851 2850 2850 2850 2850 2850 2850 2850 2851 2851 2852 2853 2854 2855 2856 2858 2859 2861 2862 2863 2865 2866 2868 2869 2871 2872 2874 2875 2877 2879 2882 2884 2887 2890 2893 2896 2899 2902 2905 2909 2912 2916 2919 2924 2929 2933 2938 2943 2948 2952 2956 2960 2961 2961 2964 2968 2973 2977 2982 2988 2992 2996 2999 3004 3008 3011 3014 3018 3020 3024 3027 3029 3032 3035 3038 3041
2854 2854 2853 2853 2853 2852 2852 2851 2851 2850 2849 2849 2848 2848 2848 2848 2849 2849 2849 2849 2850 2851 2852 2853 2854 2856 2857 2859 2860 2861 2863 2864 2865 2867 2868 2870 2871 2873 2875 2877 2879 2882 2884 2887 2890 2894 2897 2900 2903 2906 2910 2913 2917 2921 2925 2929 2934 2939 2944 2948 2953 2956 2957 2957 2960 2965 2969 2974 2979 2984 2989 2993 2996 3000 3004 3008 3011 3014 3017 3020 3024 3027 3030 3033 3035 3039
2853 2852 2851 2851 2851 2850 2850 2849 2849 2849 2848 2847 2847 2846 2846 2846 2846 2847 2847 2848 2849 2849 2850 2851 2853 2854 2855 2857 2858 2859 2861 2862 2863 2865 2866 2868 2869 2871 2873 2875 2877 2880 2882 2885 2888 2890 2893 2896 2899 2903 2906 2910 2914 2918 2922 2926 2931 2936 2940 2945 2949 2952 2953 2954 2957 2962 2966 2971 2976 2981 2986 2990 2994 2998 3001 3005 3008 3011 3014 3017 3021 3024 3027 3030 3033 3036
2851 2850 2849 2849 2848 2848 2848 2848 2847 2847 2846 2846 2845 2845 2845 2844 2844 2845 2845 2846 2847 2848 2849 2849 2851 2852 2854 2855 2856 2858 2859 2860 2861 2863 2864 2866 2868 2870 2872 2874 2876 2878 2880 2882 2885 2887 2890 2893 2896 2899 2903 2906 2910 2914 2918 2922 2927 2932 2937 2942 2946 2948 2949 2951 2954 2959 2964 2968 2973 2978 2983 2987 2991 2995 2999 3002 3004 3008 3011 3014 3018 3021 3024 3027 3030 3034
2849 2848 2848 2847 2846 2846 2846 2846 2846 2845 2844 2844 2844 2843 2843 2843 2843 2843 2844 2844 2845 2846 2847 2848 2849 2850 2852 2853 2854 2855 2857 2858 2859 2861 2862 2864 2866 2868 2870 2872 2874 2876 2878 2880 2882 2884 2887 2890 2893 2896 2899 2903 2907 2911 2915 2919 2923 2928 2933 2938 2942 2944 2946 2948 2951 2956 2961 2965 2970 2975 2979 2984 2988 2992 2996 2999 3001 3004 3008 3012 3015 3018 3021 3024 3028 3031
2847 2846 2846 2845 2845 2844 2844 2844 2844 2843 2842 2842 2841 2841 2841 2841 2841 2841 2842 2842 2843 2844 2845 2846 2847 2849 2850 2851 2853 2854 2855 2856 2857 2859 2860 2862 2864 2866 2868 2870 2872 2874 2876 2878 2880 2882 2885 2888 2891 2894 2897 2900 2903 2907 2911 2915 2919 2924 2929 2934 2938 2941 2943 2945 2949 2953 2958 2963 2967 2972 2976 2981 2985 2989 2992 2995 2999 3002 3005 3009 3012 3015 3019 3022 3025 3029
2845 2844 2844 2844 2843 2843 2842 2843 2842 2842 2840 2840 2839 2839 2839 2840 2840 2840 2840 2841 2841 2842 2843 2844 2846 2847 2848 2849 2850 2852 2853 2854 2855 2857 2858 2860 2862 2864 2865 2867 2869 2872 2874 2876 2878 2881 2883 2886 2889 2891 2894 2897 2900 2904 2908 2912 2917 2921 2926 2930 2934 2937 2940 2943 2946 2950 2955 2960 2964 2969 2973 2978 2981 2985 2989 2992 2996 2999 3003 3006 3009 3013 3016 3019 3023 3026
2843 2842 2842 2842 2841 2841 2840 2841 2841 2840 2839 2838 2838 2837 2837 2838 2838 2838 2839 2839 2840 2841 2841 2843 2844 2845 2846 2847 2848 2849 2851 2852 2853 2855 2856 2858 2859 2861 2863 2865 2868 2870 2873 2875 2877 2879 2881 2884 2886 2889 2891 2894 2898 2902 2906 2910 2914 2918 2923 2927 2931 2934 2937 2939 2943 2948 2952 2957 2962 2966 2970 2974 2979 2983 2986 2989 2993 2997 3000 3004 3007 3010 3014 3017 3020 3024
2842 2841 2840 2840 2840 2839 2839 2839 2839 2839 2838 2837 2836 2836 2836 2835 2836 2836 2837 2838 2839 2839 2840 2841 2842 2843 2844 2846 2847 2848 2849 2850 2851 2853 2854 2856 2858 2859 2861 2864 2866 2869 2872 2874 2875 2877 2879 2882 2884 2887 2889 2892 2896 2901 2905 2909 2912 2916 2919 2924 2928 2931 2934 2937 2941 2945 2949 2954 2959 2963 2968 2972 2976 2980 2984 2987 2990 2994 2998 3001 3004 3008 3011 3015 3018 3021
2840 2840 2839 2839 2839 2838 2838 2837 2837 2837 2837 2836 2835 2835 2834 2834 2834 2834 2835 2836 2837 2838 2838 2839 2840 2842 2843 2844 2845 2846 2847 2848 2849 2851 2853 2854 2856 2858 2860 2863 2865 2868 2870 2872 2873 2875 2878 2880 2882 2885 2888 2890 2894 2899 2903 2907 2911 2914 2917 2921 2926 2929 2932 2935 2939 2943 2947 2952 2956 2961 2965 2969 2973 2977 2981 2985 2988 2992 2995 2999 3002 3005 3009 3012 3016 3019
2839 2838 2838 2837 2837 2836 2836 2836 2835 2835 2835 2834 2834 2834 2834 2833 2833 2833 2833 2834 2835 2836 2837 2838 2839 2840 2841 2842 2843 2844 2845 2846 2848 2849 2851 2853 2854 2857 2859 2861 2864 2866 2868 2869 2871 2874 2876 2878 2880 2883 2886 2889 2892 2895 2900 2904 2909 2912 2915 2919 2924 2928 2931 2934 2937 2940 2944 2949 2954 2958 2963 2967 2971 2975 2979 2982 2986 2989 2993 2996 3000 3003 3007 3010 3013 3016
2837 2837 2836 2835 2835 2835 2835 2834 2834 2834 2834 2833 2833 2832 2832 2832 2832 2831 2832 2832 2833 2834 2835 2836 2837 2838 2839 2840 2841 2842 2843 2844 2846 2847 2849 2851 2853 2855 2857 2859 2862 2864 2866 2868 2870 2872 2874 2876 2878 2881 2884 2887 2890 2894 2898 2902 2906 2910 2914 2917 2922 2926 2929 2932 2934 2938 2942 2947 2952 2956 2960 2964 2968 2972 2976 2980 2984 2987 2991 2994 2998 3001 3004 3008 3011 3014
2836 2835 2834 2834 2834 2834 2833 2833 2832 2832 2832 2832 2831 2831 2830 2830 2830 2830 2830 2831 2832 2833 2834 2834 2835 2837 2838 2838 2839 2840 2841 2842 2844 2845 2847 2849 2851 2852 2854 2857 2859 2862 2864 2866 2869 2871 2873 2874 2876 2879 2881 2884 2888 2891 2895 2900 2904 2908 2912 2915 2919 2924 2927 2929 2932 2936 2940 2945 2950 2954 2958 2962 2966 2970 2974 2977 2981 2985 2989 2992 2995 2999 3002 3005 3009 3012
2834 2833 2833 2832 2832 2832 2832 2831 2831 2831 2831 2830 2830 2829 2829 2829 2829 2829 2829 2829 2830 2831 2832 2833 2834 2835 2836 2837 2837 2838 2839 2840 2842 2844 2845 2847 2849 2850 2852 2854 2857 2859 2862 2864 2866 2869 2870 2872 2874 2876 2879 2882 2885 2889 2893 2897 2901 2905 2909 2913 2917 2921 2924 2928 2931 2934 2938 2943 2948 2953 2956 2960 2964 2967 2971 2975 2979 2983 2986 2990 2993 2997 3000 3003 3006 3009
2832 2832 2831 2830 2830 2830 2830 2830 2830 2829 2829 2829 2829 2828 2828 2828 2827 2827 2827 2828 2828 2829 2830 2831 2832 2834 2834 2835 2835 2836 2837 2838 2840 2841 2843 2844 2847 2849 2851 2853 2855 2857 2859 2862 2864 2866 2868 2870 2872 2874 2877 2879 2883 2886 2890 2894 2898 2902 2906 2910 2914 2919 2923 2926 2929 2932 2935 2940 2945 2950 2954 2958 2961 2965 2969 2973 2977 2980 2984 2988 2991 2994 2998 3001 3004 3007
2831 2830 2829 2829 2829 2829 2829 2829 2828 2828 2828 2827 2827 2827 2826 2826 2826 2826 2826 2826 2827 2828 2829 2829 2830 2832 2833 2834 2834 2834 2835 2836 2837 2839 2841 2843 2845 2847 2849 2851 2853 2855 2857 2859 2862 2864 2866 2868 2870 2872 2874 2877 2880 2883 2887 2891 2895 2899 2903 2907 2912 2916 2920 2924 2927 2929 2933 2937 2943 2948 2952 2956 2959 2963 2967 2970 2974 2978 2982 2986 2989 2993 2996 2998 3001 3004
2829 2829 2828 2828 2827 2828 2828 2828 2827 2826 2826 2826 2825 2825 2825 2825 2825 2824 2825 2825 2825 2826 2827 2828 2829 2830 2831 2832 2832 2833 2833 2834 2835 2837 2839 2841 2843 2845 2847 2849 2850 2852 2855 2857 2860 2862 2864 2865 2868 2870 2872 2875 2878 2881 2884 2888 2892 2896 2900 2904 2909 2914 2917 2921 2924 2927 2930 2935 2940 2946 2950 2954 2958 2961 2964 2968 2972 2976 2980 2984 2988 2991 2994 2996 2999 3002
2828 2827 2827 2826 2826 2826 2826 2826 2826 2825 2824 2824 2824 2824 2824 2824 2824 2823 2824 2824 2824 2825 2825 2826 2827 2828 2829 2830 2831 2831 2831 2832 2834 2835 2837 2839 2841 2843 2845 2847 2848 2850 2853 2855 2858 2860 2861 2863 2865 2867 2870 2872 2875 2878 2882 2885 2889 2893 2898 2902 2907 2911 2915 2918 2922 2925 2928 2932 2938 2943 2948 2952 2956 2959 2962 2966 2970 2974 2978 2982 2986 2989 2991 2994 2996 2999
2826 2826 2825 2825 2824 2824 2824 2824 2824 2824 2823 2823 2822 2822 2822 2822 2822 2822 2822 2822 2823 2823 2824 2825 2826 2827 2828 2829 2829 2830 2830 2830 2832 2834 2835 2837 2839 2841 2843 2844 2846 2849 2851 2854 2856 2858 2859 2861 2863 2865 2868 2870 2873 2876 2879 2883 2887 2891 2895 2899 2904 2908 2912 2916 2920 2924 2926 2930 2935 2941 2946 2950 2954 2957 2960 2964 2968 2971 2975 2980 2984 2987 2989 2992 2994 2997
2824 2824 2824 2823 2823 2823 2823 2823 2823 2822 2822 2821 2821 2820 2821 2821 2821 2821 2821 2821 2821 2822 2823 2823 2824 2825 2826 2827 2828 2829 2828 2829 2830 2831 2833 2835 2838 2840 2841 2842 2844 2846 2849 2852 2854 2856 2857 2859 2861 2864 2866 2868 2871 2874 2877 2881 2885 2889 2893 2898 2902 2906 2910 2914 2917 2921 2924 2928 2933 2938 2944 2948 2952 2955 2959 2962 2965 2969 2973 2978 2981 2985 2987 2990 2992 2995
2823 2822 2822 2822 2821 2821 2821 2821 2821 2821 2820 2819 2819 2819 2819 2819 2819 2819 2819 2820 2820 2821 2821 2822 2823 2824 2825 2826 2827 2827 2827 2827 2828 2829 2831 2833 2836 2838 2839 2840 2842 2844 2847 2850 2852 2854 2856 2857 2859 2862 2864 2867 2869 2873 2876 2879 2883 2887 2891 2896 2900 2904 2908 2911 2915 2919 2922 2926 2930 2936 2941 2946 2950 2953 2957 2960 2964 2967 2971 2975 2979 2983 2985 2988 2990 2993
2821 2821 2821 2820 2820 2819 2819 2819 2819 2819 2819 2818 2818 2817 2817 2817 2818 2818 2818 2819 2819 2819 2820 2820 2821 2822 2823 2824 2825 2826 2826 2826 2827 2828 2830 2831 2834 2836 2837 2839 2840 2843 2845 2848 2850 2852 2854 2856 2858 2860 2863 2865 2868 2871 2874 2878 2882 2885 2889 2894 2898 2901 2905 2909 2913 2916 2920 2924 2928 2934 2939 2944 2948 2952 2955 2959 2962 2965 2969 2974 2977 2981 2983 2986 2988 2991
2820 2819 2819 2819 2818 2818 2818 2818 2818 2818 2817 2817 2816 2816 2816 2816 2816 2817 2817 2817 2818 2818 2819 2819 2820 2821 2822 2823 2824 2824 2825 2825 2826 2827 2829 2830 2832 2834 2836 2838 2839 2841 2844 2846 2849 2850 2852 2854 2857 2859 2862 2864 2867 2870 2873 2877 2880 2884 2888 2892 2896 2900 2903 2907 2910 2914 2919 2922 2926 2931 2937 2942 2946 2950 2954 2957 2960 2963 2967 2971 2975 2979 2982 2984 2986 2989
2818 2818 2817 2817 2817 2817 2816 2816 2816 2816 2816 2816 2816 2815 2815 2815 2815 2815 2816 2816 2817 2817 2817 2818 2819 2819 2820 2821 2822 2823 2824 2824 2825 2826 2827 2829 2831 2834 2836 2836 2837 2839 2842 2845 2847 2849 2851 2853 2856 2858 2860 2863 2865 2869 2872 2875 2879 2883 2887 2891 2894 2898 2901 2904 2908 2913 2917 2920 2924 2929 2934 2940 2945 2949 2952 2955 2959 2962 2965 2969 2974 2977 2980 2982 2984 2987
2817 2816 2815 2815 2815 2815 2815 2815 2815 2815 2814 2814 2814 2814 2814 2814 2814 2814 2814 2815 2816 2816 2816 2817 2817 2818 2819 2820 2821 2822 2823 2824 2824 2825 2826 2828 2830 2833 2834 2835 2836 2838 2841 2844 2846 2848 2850 2852 2855 2857 2859 2862 2864 2867 2870 2874 2878 2882 2885 2889 2892 2896 2899 2902 2906 2911 2915 2919 2923 2927 2933 2938 2943 2947 2951 2954 2957 2960 2964 2968 2972 2975 2978 2980 2983 2985
2815 2814 2814 2814 2814 2814 2813 2813 2813 2813 2813 2813 2812 2812 2812 2812 2812 2813 2814 2814 2814 2815 2815 2816 2816 2817 2818 2819 2820 2821 2822 2823 2824 2825 2826 2828 2829 2832 2833 2834 2835 2838 2840 2843 2845 2847 2849 2851 2854 2856 2858 2860 2863 2866 2869 2873 2877 2880 2884 2887 2890 2893 2897 2900 2905 2909 2914 2917 2921 2925 2931 2936 2941 2946 2949 2952 2955 2959 2962 2966 2970 2973 2976 2978 2981 2983
2814 2813 2813 2812 2812 2812 2812 2812 2812 2812 2812 2811 2811 2811 2811 2811 2811 2812 2813 2813 2814 2814 2814 2815 2815 2816 2817 2818 2819 2820 2821 2822 2823 2824 2825 2827 2829 2830 2832 2833 2834 2837 2839 2841 2844 2846 2848 2850 2853 2855 2857 2859 2862 2864 2868 2872 2875 2879 2882 2885 2889 2892 2895 2899 2903 2908 2912 2915 2919 2924 2930 2935 2940 2944 2947 2951 2954 2957 2960 2964 2967 2971 2974 2976 2979 2981
2812 2811 2811 2811 2811 2810 2810 2810 2810 2810 2810 2810 2810 2810 2810 2810 2810 2811 2812 2812 2812 2813 2813 2814 2814 2815 2816 2817 2818 2819 2820 2821 2822 2823 2824 2826 2827 2829 2831 2832 2834 2836 2839 2841 2843 2845 2847 2850 2852 2854 2856 2858 2861 2864 2867 2870 2874 2877 2880 2884 2887 2890 2894 2898 2902 2907 2911 2914 2919 2924 2928 2933 2938 2942 2945 2949 2952 2955 2958 2962 2965 2968 2971 2974 2976 2979
2810 2810 2809 2809 2809 2809 2809 2809 2809 2809 2809 2809 2809 2809 2809 2809 2810 2810 2811 2811 2811 2812 2812 2813 2814 2814 2815 2816 2818 2819 2820 2821 2821 2822 2824 2824 2826 2828 2830 2832 2834 2836 2838 2840 2843 2844 2846 2848 2850 2852 2854 2857 2859 2862 2865 2869 2872 2875 2878 2882 2885 2889 2893 2896 2901 2905 2909 2914 2918 2922 2926 2931 2935 2940 2944 2947 2950 2953 2956 2959 2963 2966 2969 2972 2974 2977
2808 2808 2808 2808 2808 2808 2808 2807 2807 2807 2807 2807 2807 2808 2808 2808 2809 2809 2809 2810 2810 2811 2811 2812 2813 2814 2815 2816 2817 2818 2820 2820 2821 2821 2822 2824 2825 2828 2829 2831 2833 2835 2838 2840 2842 2843 2844 2846 2848 2850 2852 2855 2858 2860 2864 2867 2870 2873 2876 2879 2883 2886 2890 2894 2899 2903 2908 2912 2916 2920 2924 2929 2933 2938 2941 2945 2948 2951 2954 2957 2960 2963 2966 2969 2972 2974
2807 2806 2806 2806 2806 2806 2806 2806 2806 2806 2806 2806 2806 2806 2807 2807 2808 2808 2809 2809 2809 2810 2811 2811 2812 2813 2814 2815 2816 2818 2819 2820 2819 2820 2821 2823 2825 2827 2829 2831 2833 2835 2837 2839 2840 2840 2842 2844 2846 2848 2849 2852 2856 2859 2862 2865 2868 2871 2873 2877 2880 2884 2888 2891 2896 2900 2905 2910 2914 2918 2922 2927 2931 2935 2939 2943 2946 2949 2952 2955 2958 2961 2964 2967 2970 2972
2805 2805 2805 2805 2804 2804 2804 2804 2804 2804 2804 2805 2805 2805 2806 2806 2807 2807 2808 2808 2809 2809 2810 2811 2812 2813 2814 2815 2816 2818 2819 2819 2819 2819 2821 2823 2825 2827 2828 2830 2832 2834 2836 2838 2839 2839 2841 2842 2844 2846 2848 2848 2852 2857 2860 2863 2866 2869 2871 2875 2879 2882 2886 2889 2893 2898 2903 2907 2912 2916 2920 2925 2929 2934 2937 2941 2944 2947 2950 2953 2955 2958 2962 2965 2969 2971
2804 2804 2804 2804 2803 2803 2803 2803 2803 2803 2803 2803 2804 2804 2804 2805 2806 2806 2807 2808 2809 2809 2810 2811 2812 2813 2814 2815 2816 2817 2818 2818 2818 2819 2821 2823 2824 2826 2828 2829 2831 2833 2834 2836 2837 2839 2841 2842 2844 2845 2846 2847 2849 2852 2858 2861 2864 2866 2869 2873 2877 2880 2884 2888 2892 2896 2900 2905 2909 2914 2918 2923 2927 2932 2935 2939 2942 2945 2948 2951 2954 2956 2960 2964 2968 2970
2803 2803 2803 2803 2803 2802 2802 2802 2802 2802 2802 2802 2803 2803 2804 2804 2805 2806 2807 2807 2808 2809 2810 2811 2812 2813 2813 2814 2815 2816 2817 2817 2817 2819 2821 2823 2824 2825 2827 2828 2830 2831 2832 2833 2835 2838 2839 2841 2843 2844 2846 2847 2848 2850 2855 2858 2860 2864 2868 2872 2875 2879 2883 2887 2891 2894 2898 2902 2907 2911 2915 2920 2925 2929 2933 2936 2940 2943 2946 2949 2951 2954 2958 2962 2966 2969
2803 2803 2803 2802 2802 2802 2801 2801 2801 2801 2801 2802 2802 2803 2803 2804 2805 2805 2806 2807 2808 2809 2810 2811 2812 2812 2813 2814 2814 2815 2816 2817 2818 2819 2821 2822 2823 2824 2825 2827 2828 2829 2829 2831 2833 2836 2838 2839 2840 2842 2844 2845 2847 2849 2853 2856 2858 2862 2867 2871 2874 2877 2881 2885 2889 2892 2896 2900 2905 2909 2913 2918 2923 2927 2930 2934 2938 2941 2944 2947 2950 2953 2956 2961 2965 2968
2803 2803 2803 2802 2802 2801 2801 2801 2801 2801 2801 2801 2802 2802 2803 2804 2804 2805 2806 2807 2808 2809 2810 2811 2812 2812 2813 2814 2814 2815 2816 2817 2818 2819 2820 2821 2822 2823 2824 2825 2826 2827 2827 2829 2831 2833 2835 2837 2839 2840 2842 2843 2845 2849 2853 2855 2858 2861 2865 2869 2872 2876 2879 2884 2887 2891 2895 2899 2903 2907 2912 2916 2921 2925 2928 2932 2936 2939 2943 2945 2948 2950 2954 2959 2963 2967
2804 2803 2803 2802 2802 2802 2801 2801 2801 2801 2801 2801 2802 2802 2803 2804 2805 2805 2806 2807 2808 2809 2810 2811 2812 2812 2813 2814 2815 2816 2816 2817 2818 2819 2820 2821 2821 2822 2823 2824 2825 2825 2825 2827 2828 2830 2833 2836 2838 2840 2841 2842 2845 2849 2853 2855 2857 2860 2863 2865 2869 2874 2878 2882 2886 2889 2893 2897 2901 2906 2910 2915 2919 2923 2926 2929 2933 2936 2939 2943 2945 2948 2952 2957 2961 2965
2804 2804 2803 2803 2803 2802 2802 2802 2802 2802 2802 2802 2802 2803 2803 2804 2805 2806 2807 2808 2809 2809 2810 2811 2812 2813 2814 2815 2816 2816 2817 2818 2818 2819 2819 2820 2821 2821 2822 2823 2824 2824 2824 2825 2826 2828 2831 2833 2835 2837 2839 2840 2844 2849 2853 2854 2855 2858 2861 2864 2868 2872 2875 2880 2884 2888 2891 2896 2900 2905 2909 2914 2918 2921 2923 2925 2929 2932 2935 2938 2942 2945 2949 2954 2959 2963
2805 2804 2804 2804 2803 2803 2803 2802 2802 2802 2802 2802 2803 2803 2804 2804 2805 2806 2807 2808 2809 2810 2810 2811 2812 2813 2814 2815 2816 2817 2817 2817 2818 2818 2819 2820 2820 2821 2822 2822 2822 2823 2823 2824 2824 2826 2829 2831 2833 2834 2836 2838 2840 2843 2849 2851 2853 2856 2859 2864 2867 2871 2874 2878 2882 2886 2890 2894 2899 2903 2907 2911 2915 2918 2921 2923 2925 2928 2931 2934 2939 2943 2947 2951 2955 2959
2805 2805 2804 2804 2804 2804 2803 2803 2803 2803 2803 2803 2803 2804 2804 2805 2806 2807 2808 2809 2809 2810 2811 2812 2813 2814 2814 2815 2816 2816 2816 2817 2817 2818 2819 2820 2821 2821 2821 2821 2821 2822 2822 2822 2823 2824 2827 2830 2833 2835 2837 2839 2839 2841 2845 2848 2851 2854 2859 2862 2864 2868 2871 2875 2880 2884 2889 2893 2897 2901 2905 2909 2913 2917 2919 2922 2925 2928 2931 2934 2937 2941 2946 2950 2953 2956
2806 2806 2805 2805 2804 2804 2804 2803 2803 2803 2803 2803 2804 2804 2805 2805 2806 2807 2808 2809 2810 2811 2811 2812 2813 2814 2814 2815 2815 2815 2816 2816 2817 2818 2819 2819 2820 2820 2819 2819 2820 2820 2820 2821 2822 2824 2826 2829 2831 2834 2837 2839 2840 2841 2843 2847 2850 2854 2857 2859 2862 2865 2869 2874 2878 2883 2887 2891 2895 2899 2903 2908 2911 2914 2918 2921 2924 2928 2931 2935 2938 2941 2945 2949 2952 2955
2807 2806 2806 2806 2805 2805 2804 2804 2804 2804 2804 2804 2804 2804 2805 2806 2807 2808 2809 2810 2810 2811 2812 2813 2813 2814 2814 2814 2815 2815 2815 2816 2817 2818 2819 2819 2819 2818 2818 2819 2819 2819 2819 2820 2821 2823 2824 2827 2830 2833 2834 2837 2839 2841 2843 2846 2849 2852 2855 2857 2861 2866 2870 2874 2878 2882 2885 2889 2894 2898 2901 2905 2909 2913 2917 2920 2924 2927 2931 2934 2937 2940 2944 2947 2950 2954
2808 2808 2807 2807 2806 2806 2805 2805 2804 2804 2804 2804 2805 2805 2806 2807 2808 2809 2809 2810 2811 2812 2812 2813 2814 2814 2814 2814 2814 2815 2815 2816 2817 2817 2817 2817 2817 2817 2817 2818 2818 2819 2819 2819 2821 2823 2825 2828 2831 2833 2834 2836 2838 2840 2843 2846 2848 2850 2853 2856 2860 2864 2867 2871 2875 2880 2884 2888 2892 2896 2899 2903 2907 2911 2916 2919 2923 2926 2929 2932 2936 2939 2943 2946 2949 2953
2809 2809 2808 2808 2807 2807 2806 2806 2805 2805 2805 2805 2806 2806 2807 2808 2809 2809 2810 2811 2812 2812 2813 2813 2814 2814 2814 2814 2814 2815 2815 2815 2815 2816 2816 2816 2816 2816 2817 2817 2817 2817 2818 2819 2820 2823 2826 2829 2830 2832 2833 2835 2838 2840 2843 2844 2846 2848 2851 2854 2857 2860 2864 2868 2873 2878 2882 2886 2890 2894 2898 2901 2905 2910 2914 2918 2922 2925 2928 2931 2934 2937 2941 2944 2948 2951
2811 2810 2809 2809 2808 2808 2808 2807 2807 2807 2807 2807 2807 2808 2808 2809 2809 2810 2811 2811 2812 2812 2813 2814 2814 2814 2815 2815 2814 2814 2814 2814 2814 2814 2815 2815 2815 2816 2816 2816 2816 2816 2817 2819 2821 2823 2825 2828 2829 2830 2832 2835 2837 2839 2842 2843 2845 2847 2849 2852 2855 2859 2864 2869 2873 2877 2880 2884 2887 2891 2895 2900 2904 2908 2912 2916 2919 2923 2926 2929 2933 2936 2939 2942 2945 2949
2812 2811 2811 2810 2810 2809 2809 2809 2808 2808 2808 2809 2809 2809 2809 2810 2810 2811 2811 2812 2812 2813 2813 2814 2814 2815 2815 2814 2814 2814 2814 2813 2813 2813 2813 2814 2814 2814 2814 2814 2814 2815 2816 2819 2821 2823 2825 2826 2827 2829 2832 2834 2836 2838 2840 2843 2844 2846 2848 2850 2854 2858 2863 2868 2872 2875 2879 2883 2886 2890 2894 2899 2903 2907 2910 2914 2918 2922 2925 2929 2932 2935 2938 2941 2944 2947
2813 2813 2812 2812 2811 2811 2810 2810 2809 2810 2810 2810 2810 2810 2810 2811 2812 2812 2812 2812 2813 2813 2814 2814 2814 2814 2814 2814 2814 2814 2813 2813 2812 2812 2811 2811 2811 2811 2811 2812 2812 2813 2815 2818 2820 2823 2824 2826 2828 2829 2832 2834 2836 2838 2841 2843 2844 2845 2847 2849 2852 2856 2861 2865 2869 2873 2877 2881 2885 2889 2893 2897 2901 2904 2909 2913 2917 2921 2924 2927 2931 2934 2937 2940 2943 2946
2815 2814 2814 2813 2813 2812 2812 2811 2811 2811 2811 2811 2811 2812 2812 2812 2813 2813 2813 2813 2813 2814 2814 2814 2814 2814 2814 2814 2814 2813 2813 2813 2812 2812 2811 2810 2809 2809 2810 2811 2812 2813 2815 2818 2820 2822 2824 2826 2828 2830 2832 2834 2836 2839 2841 2842 2843 2843 2844 2847 2851 2855 2860 2864 2868 2872 2876 2880 2884 2889 2893 2896 2900 2904 2908 2912 2915 2919 2922 2925 2929 2933 2936 2939 2942 2945
2816 2815 2815 2814 2814 2814 2813 2813 2812 2812 2812 2812 2813 2813 2813 2813 2814 2814 2814 2814 2814 2814 2814 2814 2814 2814 2814 2814 2814 2814 2813 2813 2813 2813 2812 2811 2810 2810 2810 2811 2812 2813 2815 2819 2821 2822 2824 2826 2829 2830 2832 2833 2836 2838 2839 2840 2841 2842 2844 2847 2850 2855 2860 2864 2869 2872 2876 2879 2883 2887 2891 2896 2900 2904 2908 2911 2913 2916 2920 2924 2928 2931 2934 2937 2941 2944
2818 2817 2816 2816 2815 2814 2814 2814 2814 2813 2813 2813 2814 2814 2814 2814 2815 2815 2815 2815 2816 2816 2816 2816 2816 2816 2815 2815 2815 2814 2814 2814 2814 2814 2814 2813 2813 2812 2812 2812 2813 2814 2817 2820 2822 2822 2824 2826 2828 2830 2831 2834 2835 2837 2839 2840 2841 2841 2843 2846 2850 2854 2859 2863 2867 2871 2874 2878 2882 2886 2890 2894 2898 2902 2906 2909 2911 2915 2919 2922 2926 2929 2933 2936 2939 2943